Miami, FL

9:01 PM EST on November 18, 2017 (GMT -0500)
Miami International

Weather History for KMIA - May, 2014

Change the Weather History Date:

Tuesday, May 13, 2014

  Actual Average Record
Temperature  
Mean Temperature 82 °F 80 °F  
Max Temperature 88 °F 87 °F 93 °F (1985)
Min Temperature 76 °F 73 °F 54 °F (1940)
Degree Days  
Heating Degree Days 0 0  
Month to date heating degree days 0 0  
Since 1 July heating degree days 61 128  
Cooling Degree Days 17 15  
Month to date cooling degree days 213 178  
Year to date cooling degree days 1294 1071  
Growing Degree Days 32 (Base 50)    
Moisture  
Dew Point 71 °F    
Average Humidity 72    
Maximum Humidity 88    
Minimum Humidity 55    
Precipitation  
Precipitation 0.05 in 0.15 in 2.42 in (2003)
Month to date precipitation 0.34 1.58  
Year to date precipitation 7.20 11.59  
Snow  
Snow 0.00 in - - ()
Month to date snowfall 0.0  
Since 1 July snowfall 0.0  
Snow Depth 0.00 in    
Sea Level Pressure  
Sea Level Pressure 30.02 in    
Wind  
Wind Speed 15 mph (East)    
Max Wind Speed 23 mph    
Max Gust Speed 29 mph    
Visibility 9 miles    
Events Rain    
T = Trace of Precipitation, MM = Missing Value Source: NWS Daily Summary

Daily Weather History Graph

Daily Weather History Graph

Search for Another Location

Airport or City:

Trip Planner

Search our weather history database for the weather conditions in past years. The results will help you decide how hot, cold, wet, or windy it might be!

Date:

Astronomy

May. 13, 2014 Rise Set
Actual Time 6:36 AM EDT 7:58 PM EDT
Civil Twilight 6:11 AM EDT 8:23 PM EDT
Nautical Twilight 5:42 AM EDT 8:53 PM EDT
Astronomical Twilight 5:11 AM EDT 9:24 PM EDT
Moon 7:05 PM EDT (5/13) 5:42 AM EDT (5/13)
Length of Visible Light 14h 11m
Length of Day
13h 22m
Waxing Gibbous, 98% of the Moon is Illuminated
May 13
Waxing Gibbous
May 14
Full
May 21
Last Quarter
May 28
New
Jun 5
First Quarter

Hourly Weather History & Observations

Time (EDT) Temp. Heat Index Dew Point Humidity Pressure Visibility Wind Dir Wind Speed Gust Speed Precip Events Conditions
12:53 AM 80.1 °F 83.2 °F 70.0 °F 71% 30.04 in 10.0 mi ENE 15.0 mph 23.0 mph N/A   Mostly Cloudy
1:29 AM 80.1 °F 83.2 °F 70.0 °F 71% 30.02 in 10.0 mi East 16.1 mph 28.8 mph N/A   Mostly Cloudy
1:53 AM 78.8 °F - 69.8 °F 74% 30.01 in 10.0 mi East 18.4 mph 25.3 mph N/A   Mostly Cloudy
2:00 AM 80.1 °F 83.2 °F 70.0 °F 71% 30.00 in 10.0 mi ENE 11.5 mph 25.3 mph N/A   Mostly Cloudy
2:10 AM 75.9 °F - 70.0 °F 82% 30.01 in 5.0 mi East 20.7 mph 28.8 mph 0.03 in Rain Rain
2:53 AM 77.0 °F - 73.0 °F 88% 29.99 in 10.0 mi ENE 10.4 mph - 0.03 in   Overcast
3:53 AM 77.0 °F - 72.0 °F 84% 29.99 in 5.0 mi East 16.1 mph 24.2 mph 0.01 in Rain Light Rain
4:53 AM 78.1 °F - 72.0 °F 81% 29.98 in 6.0 mi East 12.7 mph - 0.00 in   Mostly Cloudy
5:40 AM 77.0 °F - 72.0 °F 84% 29.98 in 7.0 mi East 12.7 mph - 0.00 in   Mostly Cloudy
5:53 AM 77.0 °F - 72.0 °F 84% 29.99 in 7.0 mi East 11.5 mph - 0.00 in   Mostly Cloudy
6:53 AM 78.1 °F - 72.0 °F 81% 30.01 in 10.0 mi East 13.8 mph - 0.00 in   Mostly Cloudy
7:53 AM 79.0 °F - 71.1 °F 77% 30.02 in 10.0 mi East 15.0 mph 23.0 mph N/A   Mostly Cloudy
8:53 AM 82.4 °F 87.2 °F 71.6 °F 70% 30.02 in 10.0 mi ENE 16.1 mph 23.0 mph N/A   Mostly Cloudy
9:53 AM 82.9 °F 87.5 °F 71.1 °F 67% 30.04 in 10.0 mi East 18.4 mph - N/A   Mostly Cloudy
10:53 AM 84.9 °F 90.1 °F 71.1 °F 63% 30.05 in 10.0 mi East 17.3 mph 24.2 mph N/A   Mostly Cloudy
11:53 AM 84.2 °F 89.6 °F 71.6 °F 66% 30.06 in 10.0 mi East 17.3 mph - N/A   Mostly Cloudy
12:53 PM 86.0 °F 91.5 °F 71.1 °F 61% 30.05 in 10.0 mi East 16.1 mph - N/A   Mostly Cloudy
1:53 PM 87.1 °F 92.0 °F 70.0 °F 57% 30.04 in 10.0 mi East 17.3 mph - N/A   Mostly Cloudy
2:53 PM 86.0 °F 90.7 °F 70.0 °F 59% 30.02 in 10.0 mi East 20.7 mph - N/A   Mostly Cloudy
3:53 PM 84.0 °F 89.0 °F 71.1 °F 65% 30.01 in 10.0 mi East 17.3 mph - N/A   Mostly Cloudy
4:53 PM 84.9 °F 89.4 °F 70.0 °F 61% 29.99 in 10.0 mi East 17.3 mph - N/A   Mostly Cloudy
5:53 PM 84.0 °F 89.6 °F 72.0 °F 67% 29.99 in 10.0 mi East 16.1 mph 21.9 mph N/A   Mostly Cloudy
6:53 PM 82.0 °F 86.3 °F 71.1 °F 69% 30.00 in 10.0 mi ESE 16.1 mph - 0.00 in   Mostly Cloudy
7:53 PM 80.1 °F 83.8 °F 72.0 °F 76% 30.00 in 10.0 mi East 13.8 mph - 0.01 in   Mostly Cloudy
7:57 PM 80.1 °F 83.8 °F 72.0 °F 76% 30.00 in 10.0 mi East 17.3 mph - N/A   Mostly Cloudy
8:53 PM 80.1 °F 83.8 °F 72.0 °F 76% 30.00 in 10.0 mi ENE 6.9 mph - N/A   Mostly Cloudy
9:53 PM 79.0 °F - 72.0 °F 79% 30.01 in 10.0 mi East 11.5 mph - 0.00 in   Scattered Clouds
10:22 PM 79.0 °F - 72.0 °F 79% 30.03 in 10.0 mi East 15.0 mph - N/A   Overcast
10:53 PM 79.0 °F - 72.0 °F 79% 30.04 in 10.0 mi East 12.7 mph - 0.00 in   Mostly Cloudy
11:40 PM 79.0 °F - 72.0 °F 79% 30.04 in 10.0 mi East 15.0 mph - 0.00 in   Mostly Cloudy
11:53 PM 79.0 °F - 72.0 °F 79% 30.04 in 10.0 mi East 15.0 mph 23.0 mph 0.00 in   Mostly Cloudy